Home   Weather   St Helens   Past weeks

Flag for United Kingdom Past Weather in St Helens, England, United Kingdom — Yesterday and Last 2 Weeks

Now
48 °F

Passing clouds.


Feels Like: 42 °F
Forecast: 44 / 50 °F
Wind: 15 mph from West

Location: Liverpool Airport

Current Time: Dec 11, 2016 at 8:18:16 am

Latest Report: Dec 11, 2016 at 7:20 am


Visibility: N/A

Pressure: 30.18 "Hg

Humidity: 87%

Dew Point: 45 °F

Location of St HelensLocation

Past Weather in St Helens — Graph

°F

St Helens Temperature Yesterday

Maximum temperature yesterday: 52 °F (at 12:20 am)
Minimum temperature yesterday: 45 °F (at 7:50 pm)
Average temperature yesterday: 50 °F

High & Low Weather Summary for the Past Weeks

 TemperatureHumidityPressure
High59 °F (Dec 7, 1:20 pm)100% (Nov 26, 7:20 am)30.57 "Hg (Nov 26, 7:20 am)
Low27 °F (Nov 29, 7:50 am)58% (Nov 28, 1:50 pm)30.04 "Hg (Dec 8, 9:50 am)
Average43 °F88%30.29 "Hg
* Reported Nov 26 7:20 am — Dec 11 7:20 am, St Helens, Weather by CustomWeather, © 2016

Note: Actual official high and low records may vary slightly from our data, if they occured in-between our weather recording intervals... More about our weather records

Advertising

St Helens Weather History for the Previous 24 Hours

Scroll right to see more
 ConditionsComfort  
Time TempWeatherWind HumidityBarometerVisibility
7:20 am
Sun, Dec 11
48 °FPassing clouds.15 mph87%30.18 "HgN/A
6:50 am48 °FPartly cloudy.15 mph94%30.18 "HgN/A
6:20 am48 °FPassing clouds.16 mph87%30.18 "HgN/A
5:50 am48 °FPassing clouds.15 mph87%30.15 "HgN/A
5:20 am48 °FPassing clouds.15 mph87%30.15 "HgN/A
4:50 am48 °FPassing clouds.18 mph87%30.15 "HgN/A
4:20 am46 °FPassing clouds.15 mph87%30.15 "HgN/A
3:50 am46 °FPassing clouds.13 mph93%30.15 "HgN/A
3:20 am46 °FPassing clouds.14 mph87%30.15 "HgN/A
2:50 am46 °FPassing clouds.16 mph87%30.15 "HgN/A
2:20 am46 °FPassing clouds.17 mph93%30.15 "HgN/A
1:50 am46 °FPassing clouds.18 mph93%30.15 "HgN/A
1:20 am46 °FPassing clouds.15 mph93%30.15 "HgN/A
12:50 am46 °FPassing clouds.14 mph93%30.12 "HgN/A
12:20 am46 °FPassing clouds.16 mph93%30.12 "HgN/A
11:50 pm
Sat, Dec 10
48 °FPassing clouds.16 mph87%30.12 "HgN/A
11:20 pm46 °FPassing clouds.12 mph93%30.12 "HgN/A
10:50 pm46 °FPassing clouds.14 mph93%30.09 "HgN/A
10:20 pm46 °FPassing clouds.14 mph93%30.09 "HgN/A
9:50 pm48 °FPassing clouds.13 mph87%30.09 "HgN/A
9:20 pm46 °FPassing clouds.10 mph87%30.09 "HgN/A
8:50 pm46 °FPartly cloudy.9 mph93%30.09 "HgN/A
8:20 pm45 °FPassing clouds.7 mph93%30.07 "HgN/A
7:50 pm45 °FPassing clouds.5 mph93%30.07 "HgN/A
7:20 pm46 °FPassing clouds.5 mph100%30.07 "Hg6 mi
6:50 pm48 °FScattered showers. Passing clouds.2 mph94%30.07 "Hg6 mi
6:20 pm48 °FScattered showers. Passing clouds.2 mph94%30.07 "HgN/A
5:50 pm50 °FSprinkles. Passing clouds.6 mph88%30.07 "HgN/A
5:20 pm50 °FSprinkles. Passing clouds.10 mph94%30.07 "HgN/A
4:50 pm50 °FSprinkles. Passing clouds.10 mph88%30.09 "HgN/A
4:20 pm50 °FSprinkles. Passing clouds.10 mph94%30.07 "Hg6 mi
3:50 pm50 °FScattered clouds.8 mph94%30.07 "Hg6 mi
3:20 pm52 °FPassing clouds.6 mph88%30.07 "HgN/A
2:50 pm50 °FPassing clouds.2 mph94%30.07 "HgN/A
2:20 pm52 °FScattered clouds.2 mph88%30.07 "HgN/A
1:50 pm52 °FPartly sunny.2 mph88%30.07 "HgN/A
1:20 pm52 °FScattered clouds.7 mph88%30.09 "HgN/A
12:50 pm52 °FScattered clouds.7 mph88%30.09 "HgN/A
12:20 pm52 °FScattered clouds.6 mph88%30.09 "HgN/A
11:50 am52 °FScattered clouds.8 mph88%30.09 "HgN/A
11:20 am52 °FScattered clouds.6 mph88%30.09 "HgN/A
10:50 am50 °FPartly sunny.5 mph94%30.09 "HgN/A
10:20 am52 °FBroken clouds.1 mph88%30.12 "HgN/A
9:50 am50 °FBroken clouds.1 mph94%30.12 "HgN/A
9:20 am50 °FPartly sunny.1 mph94%30.12 "HgN/A
8:50 am50 °FPartly sunny.3 mph94%30.12 "HgN/A
8:20 am50 °FPartly sunny.3 mph88%30.09 "HgN/A
Weather by CustomWeather, © 2016

See weather overviewHow to use our weather pages